• In Moldova, Republic
  • List of Countries
  • For 7 days
  • Water Temperature
  • Satellite Maps
  • Weather Map
  • Weather Widgets
  • user-avatar
    Login

    Hourly Weather Kitzbuhel

    Today, 28 July, Friday

    Time Temperature Precipitation Wind Pressure Humidity
    00:00 +13°C° 0.4 mm 1 mps 675 mmHg 92%
    01:00 +13°C° 0.4 mm 1 mps 675 mmHg 93%
    02:00 +13°C° 1.1 mm 1 mps 675 mmHg 94%
    03:00 +13°C° 1.1 mm 1 mps 675 mmHg 94%
    04:00 +13°C° 1.1 mm 1 mps 675 mmHg 95%
    05:00 +14°C° 0.8 mm 1 mps 675 mmHg 95%
    06:00 +14°C° 0.8 mm 1 mps 676 mmHg 94%
    07:00 +15°C° 0.8 mm 1 mps 676 mmHg 93%
    08:00 +16°C° 0.2 mm 1 mps 676 mmHg 89%
    09:00 +18°C° 0.2 mm 1 mps 677 mmHg 84%
    10:00 +20°C° 0.2 mm 1 mps 677 mmHg 79%
    11:00 +19°C° 0.4 mm 2 mps 677 mmHg 78%
    12:00 +20°C° 0.4 mm 2 mps 677 mmHg 76%
    13:00 +20°C° 0.4 mm 2 mps 678 mmHg 75%
    14:00 +20°C° 0.4 mm 2 mps 678 mmHg 77%
    15:00 +20°C° 0.4 mm 2 mps 678 mmHg 79%
    16:00 +20°C° 0.4 mm 2 mps 678 mmHg 81%
    17:00 +20°C° 0.2 mm 1 mps 678 mmHg 84%
    18:00 +19°C° 0.2 mm 1 mps 678 mmHg 88%
    19:00 +18°C° 0.2 mm 1 mps 678 mmHg 91%
    20:00 +18°C° 0 mm 1 mps 678 mmHg 92%
    21:00 +16°C° 0 mm 1 mps 679 mmHg 94%
    22:00 +15°C° 0 mm 1 mps 679 mmHg 95%
    23:00 +14°C° 0 mm 1 mps 679 mmHg 95%

    Tomorrow, 29 July, Saturday

    Time Temperature Precipitation Wind Pressure Humidity
    00:00 +14°C° 0 mm 1 mps 679 mmHg 95%
    01:00 +13°C° 0 mm 1 mps 679 mmHg 95%
    02:00 +13°C° 0 mm 1 mps 679 mmHg 94%
    03:00 +13°C° 0 mm 1 mps 679 mmHg 94%
    04:00 +13°C° 0 mm 1 mps 679 mmHg 94%
    05:00 +14°C° 0 mm 1 mps 679 mmHg 91%
    06:00 +16°C° 0 mm 1 mps 680 mmHg 88%
    07:00 +19°C° 0 mm 1 mps 680 mmHg 86%
    08:00 +21°C° 0 mm 1 mps 681 mmHg 77%
    09:00 +23°C° 0 mm 1 mps 681 mmHg 68%
    10:00 +25°C° 0 mm 1 mps 681 mmHg 60%
    11:00 +25°C° 0.1 mm 1 mps 681 mmHg 60%
    12:00 +25°C° 0.1 mm 1 mps 681 mmHg 60%
    13:00 +26°C° 0.1 mm 2 mps 681 mmHg 60%
    14:00 +26°C° 0.6 mm 2 mps 681 mmHg 63%
    15:00 +25°C° 0.6 mm 2 mps 681 mmHg 67%
    16:00 +25°C° 0.6 mm 2 mps 680 mmHg 70%
    17:00 +24°C° 1.1 mm 1 mps 680 mmHg 76%
    18:00 +22°C° 1.1 mm 1 mps 680 mmHg 82%
    19:00 +21°C° 1.1 mm 1 mps 680 mmHg 88%
    20:00 +20°C° 1.4 mm 1 mps 680 mmHg 90%
    21:00 +19°C° 1.4 mm 1 mps 680 mmHg 92%
    22:00 +18°C° 1.4 mm 1 mps 680 mmHg 94%
    23:00 +18°C° 0.7 mm 1 mps 680 mmHg 94%

    Day after tomorrow, 30 July, Sunday

    Time Temperature Precipitation Wind Pressure Humidity
    00:00 +18°C° 0.7 mm 1 mps 680 mmHg 94%
    01:00 +18°C° 0.7 mm 1 mps 679 mmHg 94%
    02:00 +18°C° 0.4 mm 1 mps 679 mmHg 94%
    03:00 +16°C° 0.4 mm 1 mps 679 mmHg 94%
    04:00 +16°C° 0.4 mm 2 mps 679 mmHg 94%
    05:00 +17°C° 0.3 mm 2 mps 679 mmHg 92%
    06:00 +18°C° 0.3 mm 2 mps 679 mmHg 90%
    07:00 +19°C° 0.3 mm 2 mps 679 mmHg 88%
    08:00 +22°C° 0.2 mm 1 mps 680 mmHg 76%
    09:00 +25°C° 0.2 mm 1 mps 680 mmHg 64%
    10:00 +27°C° 0.2 mm 1 mps 680 mmHg 53%
    11:00 +28°C° 0.4 mm 1 mps 680 mmHg 51%
    12:00 +28°C° 0.4 mm 1 mps 680 mmHg 49%
    13:00 +29°C° 0.4 mm 1 mps 680 mmHg 47%
    14:00 +28°C° 0.9 mm 1 mps 680 mmHg 52%
    15:00 +27°C° 0.9 mm 1 mps 680 mmHg 57%
    16:00 +26°C° 0.9 mm 1 mps 679 mmHg 62%
    17:00 +24°C° 2.5 mm 1 mps 679 mmHg 72%
    18:00 +22°C° 2.5 mm 1 mps 679 mmHg 83%
    19:00 +20°C° 2.5 mm 1 mps 679 mmHg 93%
    20:00 +20°C° 0.9 mm 1 mps 679 mmHg 93%
    21:00 +19°C° 0.9 mm 1 mps 679 mmHg 94%
    22:00 +17°C° 0.9 mm 2 mps 680 mmHg 94%
    23:00 +17°C° 0 mm 2 mps 679 mmHg 94%

    31 July, Monday

    Time Temperature Precipitation Wind Pressure Humidity
    00:00 +16°C° 0 mm 2 mps 679 mmHg 93%
    01:00 +16°C° 0 mm 2 mps 679 mmHg 93%
    02:00 +15°C° 0 mm 2 mps 679 mmHg 92%
    03:00 +15°C° 0 mm 1 mps 679 mmHg 91%
    04:00 +15°C° 0 mm 1 mps 679 mmHg 90%
    05:00 +16°C° 0 mm 1 mps 679 mmHg 87%
    06:00 +19°C° 0 mm 1 mps 680 mmHg 85%
    07:00 +20°C° 0 mm 1 mps 680 mmHg 82%
    08:00 +23°C° 0 mm 1 mps 681 mmHg 71%
    09:00 +25°C° 0 mm 1 mps 681 mmHg 60%
    10:00 +28°C° 0 mm 1 mps 682 mmHg 49%
    11:00 +28°C° 0 mm 1 mps 682 mmHg 47%
    12:00 +29°C° 0 mm 2 mps 681 mmHg 45%
    13:00 +30°C° 0 mm 2 mps 681 mmHg 43%
    14:00 +30°C° 0 mm 2 mps 681 mmHg 45%
    15:00 +29°C° 0 mm 2 mps 681 mmHg 48%
    16:00 +29°C° 0 mm 2 mps 681 mmHg 50%
    17:00 +28°C° 0.1 mm 2 mps 680 mmHg 60%
    18:00 +26°C° 0.1 mm 2 mps 680 mmHg 70%
    19:00 +24°C° 0.1 mm 1 mps 680 mmHg 80%
    20:00 +23°C° 0.1 mm 1 mps 680 mmHg 82%
    21:00 +21°C° 0.1 mm 2 mps 680 mmHg 84%
    22:00 +19°C° 0.1 mm 2 mps 680 mmHg 87%
    23:00 +19°C° 0 mm 2 mps 679 mmHg 86%

    1 August, Tuesday

    Time Temperature Precipitation Wind Pressure Humidity
    00:00 +18°C° 0 mm 2 mps 679 mmHg 85%
    01:00 +18°C° 0 mm 2 mps 679 mmHg 84%
    02:00 +18°C° 0 mm 2 mps 679 mmHg 83%
    03:00 +17°C° 0 mm 2 mps 679 mmHg 82%
    04:00 +17°C° 0 mm 2 mps 679 mmHg 82%
    05:00 +18°C° 0 mm 2 mps 679 mmHg 79%
    06:00 +19°C° 0 mm 2 mps 680 mmHg 76%
    07:00 +21°C° 0 mm 2 mps 681 mmHg 73%
    08:00 +24°C° 0 mm 1 mps 681 mmHg 64%
    09:00 +27°C° 0 mm 1 mps 681 mmHg 54%
    10:00 +29°C° 0 mm 1 mps 682 mmHg 45%
    11:00 +30°C° 0 mm 1 mps 682 mmHg 44%
    12:00 +30°C° 0 mm 1 mps 682 mmHg 42%
    13:00 +31°C° 0 mm 2 mps 682 mmHg 40%
    14:00 +31°C° 0 mm 2 mps 682 mmHg 43%
    15:00 +30°C° 0 mm 2 mps 682 mmHg 46%
    16:00 +30°C° 0 mm 2 mps 682 mmHg 49%
    17:00 +28°C° 1.7 mm 2 mps 681 mmHg 62%
    18:00 +26°C° 1.7 mm 1 mps 681 mmHg 74%
    19:00 +24°C° 1.7 mm 1 mps 681 mmHg 86%
    20:00 +23°C° 0.7 mm 1 mps 681 mmHg 87%
    21:00 +22°C° 0.7 mm 1 mps 682 mmHg 88%
    22:00 +20°C° 0.7 mm 1 mps 682 mmHg 89%
    23:00 +20°C° 1.2 mm 1 mps 682 mmHg 90%

    2 August, Wednesday

    Time Temperature Precipitation Wind Pressure Humidity
    00:00 +19°C° 1.2 mm 1 mps 682 mmHg 91%
    01:00 +19°C° 1.2 mm 1 mps 682 mmHg 92%
    02:00 +19°C° 0.5 mm 1 mps 681 mmHg 92%
    03:00 +18°C° 0.5 mm 1 mps 681 mmHg 91%
    04:00 +18°C° 0.5 mm 1 mps 681 mmHg 91%
    05:00 +19°C° 0.2 mm 1 mps 682 mmHg 88%
    06:00 +21°C° 0.2 mm 1 mps 682 mmHg 86%
    07:00 +22°C° 0.2 mm 1 mps 682 mmHg 83%
    08:00 +24°C° 0.2 mm 1 mps 683 mmHg 73%
    09:00 +27°C° 0.2 mm 1 mps 683 mmHg 63%
    10:00 +29°C° 0.2 mm 1 mps 684 mmHg 53%
    11:00 +30°C° 0.2 mm 1 mps 684 mmHg 50%
    12:00 +30°C° 0.2 mm 1 mps 684 mmHg 48%
    13:00 +31°C° 0.2 mm 1 mps 683 mmHg 45%
    14:00 +31°C° 0.4 mm 1 mps 683 mmHg 48%
    15:00 +30°C° 0.4 mm 2 mps 683 mmHg 52%
    16:00 +30°C° 0.4 mm 2 mps 683 mmHg 55%
    17:00 +28°C° 1.3 mm 1 mps 682 mmHg 64%
    18:00 +26°C° 1.3 mm 1 mps 682 mmHg 74%
    19:00 +25°C° 1.3 mm 1 mps 682 mmHg 83%
    20:00 +24°C° 0.4 mm 1 mps 682 mmHg 84%
    21:00 +22°C° 0.4 mm 1 mps 682 mmHg 84%
    22:00 +21°C° 0.4 mm 1 mps 682 mmHg 85%
    23:00 +21°C° 0 mm 1 mps 682 mmHg 83%
    Show more